Weather in Klyuchi

Russia / Orenburg Oblast     52°56′54″N   52°44′12″E
temp.,
°C
wind,
m/s
gust,
m/s
humid.,
%
clouds,
%
prec.,
mm/h
press.,
hPa
HPBL,
m
13 august, sat
sat1323:00+18nne235355 0.0 102121
02:00+17nne11615 0.0 102111
05:00+15n11680 0.0 102111
08:00+18wnw11602 0.0 102187
11:00+24nw34441 0.0 10211126
14:00+28nnw44335 0.0 10191693
17:00+29nnw44315 0.0 10182067
20:00+25nne35430 0.0 1018120
14 august, sun
sun1423:00+20nne35610 0.0 101971
02:00+18ne33710 0.0 101942
05:00+17ne35770 0.0 101971
08:00+19ene47633 0.0 1020226
11:00+24ne553995 0.0 10201082
14:00+27nne553345 0.0 10191821
17:00+27nne652796 0.0 10181974
20:00+23nne59345 0.0 1019400
15 august, mon
mon1523:00+17ne41051100 0.0 1020175
02:00+14nne49603 0.0 1020151
05:00+13nne411625 0.0 1020210
08:00+16ne614535 0.0 1020430
11:00+23ene67390 0.0 1020866
14:00+27ene55300 0.0 10191778
17:00+28e44301 0.0 10192170
20:00+25ne58394 0.0 1020300
16 august, tue
tue1623:00+20ene614410 0.0 1021377
02:00+16ene412540 0.0 1022258
05:00+14ne49630 0.0 1023152
08:00+17ene410530 0.0 1024266
11:00+24ene67340 0.0 10231126
14:00+27ene56270 0.0 10231952
17:00+28ene66260 0.0 10222056
20:00+24ene593552 0.0 1022346
17 august, wed
wed1723:00+18ene4125156 0.0 1023219
02:00+15ne4106095 0.0 1024151
05:00+14ene386511 0.0 1024140
08:00+17ene512540 0.0 1024334
11:00+25e783229 0.0 1023973
14:00+29e66245 0.0 10221733
17:00+29e5522100 0.0 10201933
20:00+25ene3634100 0.0 1020112